[Date Prev][Date Next][Thread Prev][Thread Next] - [Date Index][Thread Index][Author Index]

2 Line ISS Keps 12-22



ISS
1 25544U 98067A   05356.05684318  .00012178  00000-0  90561-4 0  9932
2 25544 051.6461 018.0192 0010678 067.1533 336.7780 15.73242588405258
----
Via the sarex mailing list at AMSAT.ORG courtesy of AMSAT-NA.
To unsubscribe, send "unsubscribe sarex" to Majordomo@amsat.org



AMSAT Top AMSAT Home